EW7285 Weather Reports


Display with metric or nautical units.
time (UTC)temp
F
wind
direction
speed
MPH
gust
MPH
rain 1hr
in
rain 24hr
in
rain mn
in
humidity
%
barometer
mb
20260831183031 59 153 0.0 0.0 0.00 0.01 0.01 84 1004.9
20260831181525 59 153 0.0 0.0 0.00 0.01 0.01 84 1004.9
20260831180024 60 153 0.0 0.0 0.00 0.01 0.01 82 1004.7
20260831174522 61 196 0.0 0.0 0.00 0.01 0.01 80 1004.6
20260831173020 62 196 0.0 0.0 0.00 0.01 0.01 78 1004.6
20260831171618 62 196 0.0 0.0 0.00 0.01 0.01 76 1004.5
20260831170025 63 196 0.0 3.0 0.00 0.01 0.01 76 1004.6
20260831164520 63 196 0.0 3.0 0.00 0.01 0.01 76 1004.6
20260831163018 63 174 2.0 6.0 0.00 0.01 0.01 75 1004.6
20260831161519 63 205 5.0 8.0 0.00 0.01 0.01 75 1004.7
20260831160017 63 197 4.0 8.0 0.00 0.01 0.01 75 1004.6
20260831154515 63 200 5.0 9.0 0.00 0.01 0.01 76 1004.7
20260831153015 63 178 7.0 11.0 0.00 0.01 0.01 76 1004.6
20260831151518 64 206 5.0 9.0 0.00 0.01 0.01 75 1004.5
20260831150111 64 216 4.0 10.0 0.00 0.01 0.01 76 1004.5
20260831144510 64 224 3.0 12.0 0.00 0.01 0.01 77 1004.2
20260831143009 63 162 4.0 8.0 0.00 0.01 0.01 77 1004.4
20260831141508 63 218 3.0 13.0 0.00 0.01 0.01 76 1004.4
20260831140008 63 202 4.0 7.0 0.00 0.02 0.01 78 1004.4
20260831134511 63 219 9.0 17.0 0.00 0.02 0.01 77 1004.4
20260831133005 64 234 7.0 15.0 0.00 0.02 0.01 76 1004.4
20260831131503 64 205 4.0 12.0 0.00 0.02 0.01 78 1004.3
20260831130001 65 210 8.0 13.0 0.00 0.02 0.01 78 1004.1
20260831124606 65 219 7.0 14.0 0.00 0.02 0.01 78 1004.3
20260831123058 65 204 7.0 11.0 0.00 0.02 0.01 78 1004.0
20260831121604 65 231 6.0 14.0 0.00 0.02 0.01 79 1003.9
20260831120054 64 191 8.0 16.0 0.00 0.02 0.01 79 1003.8
20260831114554 64 222 8.0 16.0 0.00 0.02 0.01 79 1003.9
20260831113048 64 221 7.0 15.0 0.00 0.02 0.01 82 1003.7
20260831111550 63 237 7.0 14.0 0.00 0.02 0.01 84 1003.7
20260831110144 63 211 5.0 12.0 0.00 0.02 0.01 86 1003.5
20260831104544 62 253 7.0 14.0 0.00 0.02 0.01 88 1003.7
20260831103042 62 236 5.0 15.0 0.00 0.02 0.01 88 1003.6
20260831101544 63 249 10.0 14.0 0.00 0.02 0.01 85 1003.6
20260831100037 63 219 4.0 10.0 0.00 0.02 0.01 87 1003.4
20260831094540 63 223 9.0 18.0 0.00 0.02 0.01 85 1003.5
20260831093033 63 219 4.0 14.0 0.00 0.02 0.01 88 1003.2
20260831091538 63 198 7.0 11.0 0.00 0.02 0.01 87 1003.1
20260831090028 63 236 8.0 12.0 0.00 0.02 0.01 88 1002.9
20260831084525 62 209 6.0 15.0 0.00 0.02 0.01 90 1002.8
20260831083023 61 228 5.0 11.0 0.00 0.02 0.01 90 1002.6
20260831081522 61 225 6.0 10.0 0.00 0.02 0.01 90 1002.6
20260831080023 62 213 5.0 12.0 0.00 0.02 0.01 90 1002.5
20260831074518 62 232 6.0 10.0 0.00 0.02 0.01 91 1002.4
20260831073018 61 273 8.0 12.0 0.00 0.02 0.01 92 1002.3
20260831071515 61 254 7.0 13.0 0.00 0.02 0.01 92 1002.2
20260831070014 61 247 4.0 9.0 0.00 0.02 0.01 93 1002.0
20260831064510 61 241 5.0 9.0 0.00 0.02 0.01 93 1001.9
20260831063008 61 230 3.0 7.0 0.00 0.02 0.01 93 1001.7
20260831061514 61 250 5.0 8.0 0.00 0.02 0.01 93 1001.6
20260831060004 61 234 5.0 11.0 0.00 0.02 0.01 93 1001.5
20260831054502 61 239 6.0 11.0 0.01 0.02 0.01 93 1001.3
20260831053100 61 260 4.0 8.0 0.01 0.02 0.01 93 1001.0
20260831051557 62 233 3.0 8.0 0.01 0.02 0.01 93 1000.8
20260831050057 62 219 4.0 6.0 0.01 0.02 0.01 93 1000.7
20260831044616 62 214 3.0 6.0 0.00 0.01 0.00 93 1000.5
20260831043056 62 206 3.0 6.0 0.00 0.01 0.00 93 1000.6
20260831041612 62 195 3.0 6.0 0.00 0.01 0.00 93 1000.5
20260831040055 62 198 3.0 5.0 0.00 0.01 0.00 93 1000.3
20260831034554 62 172 4.0 7.0 0.00 0.01 0.00 93 1000.4
20260831033053 62 162 2.0 5.0 0.00 0.01 0.00 93 1000.3
20260831031552 62 175 1.0 4.0 0.00 0.01 0.00 93 1000.3
20260831030054 62 175 0.0 3.0 0.00 0.01 0.00 93 1000.3
20260831024551 62 63 1.0 2.0 0.00 0.01 0.00 93 1000.3
20260831023051 61 63 0.0 0.0 0.00 0.01 0.00 93 1000.2
20260831021553 61 63 0.0 0.0 0.00 0.01 0.00 93 1000.2
20260831020049 61 63 0.0 0.0 0.00 0.01 0.00 93 1000.2
20260831014548 61 63 0.0 0.0 0.00 0.01 0.00 93 1000.2
20260831013057 61 63 0.0 0.0 0.00 0.01 0.00 93 1000.2
20260831011548 62 63 0.0 0.0 0.00 0.01 0.00 93 1000.3
20260831010045 62 63 0.0 0.0 0.00 0.01 0.00 93 1000.3
20260831004545 62 63 0.0 1.0 0.00 0.01 0.00 93 1000.3
20260831003044 61 63 1.0 3.0 0.00 0.01 0.00 93 1000.4
20260831001542 61 63 0.0 0.0 0.00 0.01 0.00 93 1000.5
20260831000041 61 63 0.0 0.0 0.00 0.01 0.00 93 1000.5
20260830234546 61 63 0.0 0.0 0.00 0.01 0.00 92 1000.5
20260830233039 61 63 0.0 0.0 0.00 0.01 0.00 92 1000.5
20260830231541 62 63 0.0 1.0 0.00 0.01 0.00 92 1000.4
20260830230135 62 63 1.0 4.0 0.00 0.01 0.00 92 1000.5
20260830224533 62 63 0.0 3.0 0.00 0.02 0.00 92 1000.6
20260830223032 62 103 0.0 3.0 0.00 0.02 0.00 92 1000.6
20260830221531 62 64 2.0 5.0 0.00 0.02 0.00 92 1000.6
20260830220032 62 82 0.0 2.0 0.00 0.02 0.00 92 1000.6
20260830214529 62 82 0.0 2.0 0.00 0.02 0.02 92 1000.8
20260830213028 63 82 1.0 3.0 0.00 0.02 0.02 92 1000.8
20260830211527 63 82 1.0 4.0 0.00 0.02 0.02 92 1000.9
20260830210026 62 113 0.0 3.0 0.00 0.02 0.02 92 1001.1
20260830204526 62 113 0.0 2.0 0.00 0.02 0.02 92 1001.1
20260830203033 62 113 0.0 1.0 0.00 0.02 0.02 92 1001.1
20260830201535 62 113 0.0 3.0 0.00 0.02 0.02 92 1001.1
20260830200021 62 113 0.0 2.0 0.00 0.02 0.02 92 1001.2
20260830194520 62 113 0.0 0.0 0.00 0.02 0.02 92 1001.3
20260830193020 62 113 0.0 0.0 0.00 0.02 0.02 92 1001.3
20260830191523 62 113 0.0 3.0 0.00 0.02 0.02 92 1001.3
20260830190018 62 113 0.0 3.0 0.00 0.02 0.02 92 1001.4
20260830184516 62 113 0.0 0.0 0.00 0.02 0.02 92 1001.5